Powrót do katalogu

SL-8 DEB

AktywnyUNKNOWN
NORAD 9016·DEBRIS·🇷🇺 Russia

Wystrzelony Jul 8, 1976 z Plesetsk Cosmodrome

Loading…

Następne Przeloty (najbliższe 24 godziny)

TLE

ŚwieżeSource: Space-Track

Epoka: Sep 14, 2026, 06:40 UTC

1 09016U 76067C   26257.27819544 -.00000033  00000-0  79574-4 0  9997
2 09016  65.8673 132.6383 0705795 222.3895 238.1074 12.32731274258432

Śledź SL-8 DEB w czasie rzeczywistym z AllMySat

Download on the App Store